This is the latest recevied weather packets stored in our database for station/object VE3EP-1. If no packets are shown the sender has not sent any weather packets the latest 10 day(s).
| Time | Temp. | Humidity | Pressure | Rain* | Wind** | Luminosity | Snow |
|---|---|---|---|---|---|---|---|
| 1788261847 | 20° C | 98% | 1016.5 hPa | 0 mm | - | - | - |
| 1788261247 | 20° C | 98% | 1016.7 hPa | 0 mm | - | - | - |
| 1788260647 | 20.56° C | 98% | 1016.7 hPa | 0 mm | - | - | - |
| 1788260047 | 20.56° C | 98% | 1016.3 hPa | 0.25 mm | - | - | - |
| 1788259447 | 20.56° C | 98% | 1016.2 hPa | 1.02 mm | - | - | - |
| 1788258848 | 20.56° C | 98% | 1016.2 hPa | 1.02 mm | - | - | - |
| 1788258247 | 20.56° C | 98% | 1016 hPa | 1.02 mm | - | - | - |
| 1788257647 | 20.56° C | 98% | 1016.1 hPa | 1.02 mm | - | - | - |
| 1788257047 | 20.56° C | 98% | 1016.1 hPa | 1.02 mm | - | - | - |
| 1788256447 | 20.56° C | 98% | 1016.3 hPa | 0.76 mm | - | - | - |
| 1788255847 | 20.56° C | 98% | 1016.5 hPa | 0 mm | - | - | - |
| 1788255247 | 20.56° C | 98% | 1016.4 hPa | 0 mm | - | - | - |
| 1788254647 | 20.56° C | 98% | 1016.4 hPa | 0 mm | - | - | - |
| 1788254047 | 20° C | 98% | 1016.2 hPa | 0 mm | - | - | - |
| 1788253447 | 20° C | 98% | 1016.4 hPa | 0 mm | - | - | - |
| 1788252847 | 20° C | 98% | 1016.3 hPa | 0 mm | - | - | - |
| 1788252247 | 20° C | 98% | 1016.4 hPa | 0 mm | - | - | - |
| 1788251647 | 20° C | 98% | 1016.4 hPa | 0.25 mm | - | - | - |
| 1788251047 | 20° C | 98% | 1016.6 hPa | 2.03 mm | - | - | - |
| 1788250447 | 20° C | 98% | 1016.7 hPa | 2.03 mm | - | - | - |
| 1788249863 | 20° C | 98% | 1016.5 hPa | 2.03 mm | - | - | - |
| 1788249246 | 20° C | 98% | 1016.7 hPa | 2.03 mm | - | - | - |
| 1788248647 | 20° C | 98% | 1016.6 hPa | 2.03 mm | - | - | - |
| 1788248046 | 20° C | 97% | 1016.3 hPa | 1.78 mm | - | - | - |
| 1788247447 | 20° C | 97% | 1016.9 hPa | 0 mm | - | - | - |
* Rain latest hour (hover to see other rain measurements)
** Current wind speed in m/s (hover to see current wind gust speed)